Ouarzazate, Morocco

2:41 AM WEST on May 01, 2017 (GMT +0100)
Ouarzazate

Weather History for GMMZ - November, 2012

Change the Weather History Date:

Wednesday, November 21, 2012

  Actual Average Record
Temperature  
Mean Temperature 53 °F -  
Max Temperature 67 °F 64 °F - ()
Min Temperature 39 °F 38 °F - ()
Degree Days  
Heating Degree Days 12    
Growing Degree Days 3 (Base 50)    
Moisture  
Dew Point 25 °F    
Average Humidity 30    
Maximum Humidity 52    
Minimum Humidity 13    
Precipitation  
Precipitation 0.00 in 0.02 in - ()
Sea Level Pressure  
Sea Level Pressure 30.15 in    
Wind  
Wind Speed 2 mph ()    
Max Wind Speed 7 mph    
Max Gust Speed -    
Visibility 8.9 miles    
Events      
T = Trace of Precipitation, MM = Missing Value Source: Averaged Metar Reports

Daily Weather History Graph

Daily Weather History Graph

Search for Another Location

Airport or City:

Trip Planner

Search our weather history database for the weather conditions in past years. The results will help you decide how hot, cold, wet, or windy it might be!

Date:

Astronomy

Nov. 21, 2012 Rise Set
Actual Time 6:59 AM WET 5:27 PM WET
Civil Twilight 6:33 AM WET 5:53 PM WET
Nautical Twilight 6:04 AM WET 6:22 PM WET
Astronomical Twilight 5:35 AM WET 6:51 PM WET
Moon 1:13 PM WET (11/21) 12:30 AM WET (11/21)
Length of Visible Light 11h 19m
Length of Day
10h 27m
First Quarter, 59% of the Moon is Illuminated
Nov 21
First Quarter
Nov 28
Full
Dec 6
Last Quarter
Dec 13
New
Dec 20
First Quarter

Hourly Weather History & Observations

Time (WET) Temp. Windchill Dew Point Humidity Pressure Visibility Wind Dir Wind Speed Gust Speed Precip Events Conditions
12:00 AM 52 °F - 22 °F 19%  in 12 mi SW 1.2 mph - -   Clear
12:00 AM 51.8 °F - 21.2 °F 30% 30.18 in - Variable 1.2 mph - N/A   Clear
1:00 AM 48.2 °F - 23.0 °F 37% 30.15 in - Calm Calm - N/A   Clear
2:00 AM 46.4 °F - 21.2 °F 37% 30.15 in - Variable 1.2 mph - N/A   Clear
3:00 AM 45 °F - 22 °F 27%  in 12 mi West 1.2 mph - -   Clear
3:00 AM 44.6 °F - 23.0 °F 43% 30.15 in - Variable 1.2 mph - N/A   Clear
4:00 AM 42.8 °F - 21.2 °F 42% 30.15 in - Calm Calm - N/A   Clear
5:00 AM 41.0 °F - 21.2 °F 45% 3.57 in - Variable 1.2 mph - N/A   Clear
6:00 AM 41 °F - 23 °F 35%  in 12 mi West 2.3 mph - -   Clear
6:00 AM 41.0 °F - 23.0 °F 49% 30.15 in - Variable 2.3 mph - N/A   Clear
7:00 AM 39.2 °F - 23.0 °F 52% 30.18 in - Variable 2.3 mph - N/A   Clear
8:00 AM 42.8 °F 41.1 °F 23.0 °F 46% 30.21 in - Variable 3.5 mph - N/A   Clear
9:00 AM 47 °F - 25 °F 29%  in 12 mi Calm Calm - -  
9:00 AM 48.2 °F - 24.8 °F 40% 30.21 in - Calm Calm - N/A   Clear
10:00 AM 53.6 °F - 24.8 °F 33% 30.21 in - Calm Calm - N/A   Clear
11:00 AM 55.4 °F - 24.8 °F 31% 30.21 in - Variable 1.2 mph - N/A   Clear
12:00 PM 60 °F - 24 °F 15%  in 12 mi NNW 3.5 mph - -   Clear
12:00 PM 60.8 °F - 24.8 °F 25% 30.18 in - NNW 3.5 mph - N/A   Clear
1:00 PM 62.6 °F - 24.8 °F 24% 30.15 in - Variable 3.5 mph - N/A   Clear
2:00 PM 64.4 °F - 24.8 °F 22% 30.12 in - Variable 2.3 mph - N/A   Clear
3:00 PM 66 °F - 27 °F 13%  in 12 mi East 3.5 mph - -   Scattered Clouds
3:00 PM 66.2 °F - 26.6 °F 23% 30.09 in 6.2 mi Variable 3.5 mph - N/A   Mostly Cloudy
4:00 PM 66.2 °F - 26.6 °F 23% 30.09 in 6.2 mi East 4.6 mph - N/A   Mostly Cloudy
5:00 PM 66.2 °F - 28.4 °F 24% 30.09 in 6.2 mi SSE 5.8 mph - N/A   Mostly Cloudy
6:00 PM 65 °F - 29 °F 15%  in 12 mi SSE 6.9 mph - -   Scattered Clouds
6:00 PM 64.4 °F - 28.4 °F 26% 30.09 in 6.2 mi SSE 6.9 mph - N/A   Mostly Cloudy
7:00 PM 64.4 °F - 30.2 °F 28% 30.12 in 6.2 mi South 6.9 mph - N/A   Mostly Cloudy
8:00 PM 62.6 °F - 28.4 °F 27% 30.12 in 6.2 mi Variable 2.3 mph - N/A   Mostly Cloudy
9:00 PM 62 °F - 30 °F 18%  in 12 mi South 2.3 mph - -   Scattered Clouds
9:00 PM 60.8 °F - 30.2 °F 31% 30.15 in 6.2 mi Variable 2.3 mph - N/A   Mostly Cloudy
10:00 PM 60.8 °F - 28.4 °F 29% 30.15 in 6.2 mi Calm Calm - N/A   Mostly Cloudy
11:00 PM 57.2 °F - 28.4 °F 33% 30.15 in 6.2 mi NW 3.5 mph - N/A   Mostly Cloudy